• In Hungary
  • List of Countries
  • For 7 days
  • Water Temperature
  • Satellite Maps
  • Weather Map
  • News
  • Weather Widgets
  • user-avatar
    Login

    Hourly Weather Natitingou

    Today, 21 September, Friday

    Time Temperature Precipitation Wind Pressure Humidity
    00:00 +24°C° 0.1 mm 0 mps 717 mmHg 78%
    01:00 +25°C° 0.1 mm 1 mps 716 mmHg 81%
    02:00 +25°C° 0.1 mm 1 mps 716 mmHg 83%
    03:00 +25°C° 0.1 mm 1 mps 716 mmHg 85%
    04:00 +25°C° 0 mm 1 mps 716 mmHg 86%
    05:00 +24°C° 0 mm 1 mps 716 mmHg 88%
    06:00 +24°C° 0 mm 1 mps 716 mmHg 91%
    07:00 +26°C° 0 mm 1 mps 717 mmHg 84%
    08:00 +28°C° 0 mm 2 mps 717 mmHg 78%
    09:00 +29°C° 0 mm 2 mps 717 mmHg 72%
    10:00 +31°C° 0.7 mm 2 mps 717 mmHg 68%
    11:00 +32°C° 0.7 mm 1 mps 717 mmHg 64%
    12:00 +31°C° 0 mm 2 mps 717 mmHg 65%
    13:00 +32°C° 0.7 mm 1 mps 716 mmHg 63%
    14:00 +32°C° 0.7 mm 1 mps 716 mmHg 62%
    15:00 +30°C° 0.7 mm 0 mps 715 mmHg 60%
    16:00 +29°C° 0.1 mm 0 mps 715 mmHg 64%
    17:00 +29°C° 0.1 mm 1 mps 715 mmHg 69%
    18:00 +28°C° 0.1 mm 1 mps 715 mmHg 73%
    19:00 +27°C° 0.7 mm 1 mps 716 mmHg 77%
    20:00 +26°C° 0.7 mm 1 mps 716 mmHg 80%
    21:00 +26°C° 0.7 mm 1 mps 717 mmHg 83%
    22:00 +25°C° 0.2 mm 1 mps 717 mmHg 85%
    23:00 +25°C° 0.2 mm 1 mps 717 mmHg 87%

    Tomorrow, 22 September, Saturday

    Time Temperature Precipitation Wind Pressure Humidity
    00:00 +24°C° 0.2 mm 2 mps 717 mmHg 89%
    01:00 +24°C° 0 mm 2 mps 716 mmHg 90%
    02:00 +24°C° 0 mm 2 mps 716 mmHg 91%
    03:00 +24°C° 0 mm 2 mps 716 mmHg 92%
    04:00 +24°C° 0 mm 2 mps 716 mmHg 92%
    05:00 +24°C° 0 mm 2 mps 716 mmHg 93%
    06:00 +23°C° 0 mm 2 mps 717 mmHg 93%
    07:00 +25°C° 0 mm 2 mps 717 mmHg 87%
    08:00 +26°C° 0 mm 3 mps 718 mmHg 82%
    09:00 +28°C° 0 mm 3 mps 718 mmHg 76%
    10:00 +29°C° 0 mm 3 mps 718 mmHg 70%
    11:00 +31°C° 0 mm 2 mps 718 mmHg 65%
    12:00 +32°C° 0 mm 2 mps 718 mmHg 59%
    13:00 +32°C° 0.6 mm 2 mps 717 mmHg 60%
    14:00 +32°C° 0.6 mm 1 mps 716 mmHg 61%
    15:00 +32°C° 0.6 mm 1 mps 715 mmHg 61%
    16:00 +31°C° 1 mm 1 mps 715 mmHg 68%
    17:00 +29°C° 1 mm 1 mps 716 mmHg 75%
    18:00 +27°C° 1 mm 1 mps 716 mmHg 82%
    19:00 +27°C° 0.5 mm 1 mps 716 mmHg 84%
    20:00 +26°C° 0.5 mm 1 mps 717 mmHg 85%
    21:00 +26°C° 0.5 mm 1 mps 717 mmHg 87%
    22:00 +25°C° 0.9 mm 1 mps 717 mmHg 88%
    23:00 +25°C° 0.9 mm 1 mps 717 mmHg 89%

    Day after tomorrow, 23 September, Sunday

    Time Temperature Precipitation Wind Pressure Humidity
    00:00 +25°C° 0.9 mm 2 mps 717 mmHg 90%
    01:00 +25°C° 0.2 mm 2 mps 717 mmHg 90%
    02:00 +24°C° 0.2 mm 2 mps 717 mmHg 90%
    03:00 +24°C° 0.2 mm 2 mps 716 mmHg 90%
    04:00 +24°C° 1.6 mm 2 mps 717 mmHg 91%
    05:00 +24°C° 1.6 mm 1 mps 717 mmHg 92%
    06:00 +24°C° 1.6 mm 1 mps 717 mmHg 93%
    07:00 +24°C° 1.4 mm 1 mps 718 mmHg 91%
    08:00 +25°C° 1.4 mm 2 mps 718 mmHg 89%
    09:00 +26°C° 1.4 mm 2 mps 719 mmHg 87%
    10:00 +26°C° 3.5 mm 2 mps 719 mmHg 87%
    11:00 +26°C° 3.5 mm 3 mps 718 mmHg 87%
    12:00 +26°C° 3.5 mm 3 mps 718 mmHg 87%
    13:00 +26°C° 1.1 mm 2 mps 717 mmHg 85%
    14:00 +26°C° 1.1 mm 2 mps 717 mmHg 83%
    15:00 +27°C° 1.1 mm 1 mps 717 mmHg 81%
    16:00 +26°C° 0 mm 1 mps 717 mmHg 84%
    17:00 +25°C° 0 mm 1 mps 716 mmHg 86%
    18:00 +23°C° 0 mm 0 mps 716 mmHg 88%
    19:00 +22°C° 0 mm 0 mps 717 mmHg 90%
    20:00 +22°C° 0 mm 0 mps 717 mmHg 91%
    21:00 +21°C° 0 mm 0 mps 718 mmHg 93%
    22:00 +21°C° 0 mm 0 mps 718 mmHg 93%
    23:00 +21°C° 0 mm 0 mps 718 mmHg 93%

    24 September, Monday

    Time Temperature Precipitation Wind Pressure Humidity
    00:00 +21°C° 0 mm 0 mps 718 mmHg 93%
    01:00 +21°C° 0 mm 0 mps 718 mmHg 94%
    02:00 +20°C° 0 mm 0 mps 717 mmHg 94%
    03:00 +20°C° 0 mm 0 mps 717 mmHg 94%
    04:00 +22°C° 0 mm 1 mps 717 mmHg 94%
    05:00 +22°C° 0 mm 1 mps 717 mmHg 93%
    06:00 +23°C° 0 mm 1 mps 718 mmHg 93%
    07:00 +24°C° 0 mm 1 mps 718 mmHg 89%
    08:00 +25°C° 0 mm 1 mps 718 mmHg 84%
    09:00 +27°C° 0 mm 2 mps 719 mmHg 79%
    10:00 +28°C° 0 mm 2 mps 719 mmHg 72%
    11:00 +30°C° 0 mm 2 mps 718 mmHg 65%
    12:00 +32°C° 0 mm 2 mps 718 mmHg 59%
    13:00 +32°C° 0 mm 2 mps 717 mmHg 57%
    14:00 +32°C° 0 mm 1 mps 717 mmHg 56%
    15:00 +33°C° 0 mm 1 mps 717 mmHg 55%
    16:00 +31°C° 0 mm 1 mps 716 mmHg 60%
    17:00 +30°C° 0 mm 1 mps 716 mmHg 66%
    18:00 +28°C° 0 mm 1 mps 716 mmHg 72%
    19:00 +27°C° 0.8 mm 1 mps 717 mmHg 76%
    20:00 +26°C° 0.8 mm 1 mps 718 mmHg 81%
    21:00 +26°C° 0.8 mm 2 mps 718 mmHg 85%
    22:00 +25°C° 0.8 mm 2 mps 718 mmHg 87%
    23:00 +25°C° 0.8 mm 2 mps 718 mmHg 89%

    25 September, Tuesday

    Time Temperature Precipitation Wind Pressure Humidity
    00:00 +25°C° 0.8 mm 2 mps 717 mmHg 92%
    01:00 +24°C° 0 mm 2 mps 717 mmHg 91%
    02:00 +24°C° 0 mm 2 mps 716 mmHg 91%
    03:00 +24°C° 0 mm 2 mps 716 mmHg 91%
    04:00 +24°C° 0.1 mm 2 mps 716 mmHg 91%
    05:00 +24°C° 0.1 mm 2 mps 716 mmHg 92%
    06:00 +24°C° 0.1 mm 2 mps 716 mmHg 93%
    07:00 +25°C° 0.2 mm 2 mps 717 mmHg 87%
    08:00 +27°C° 0.2 mm 2 mps 718 mmHg 82%
    09:00 +29°C° 0.2 mm 2 mps 718 mmHg 76%
    10:00 +30°C° 0 mm 2 mps 718 mmHg 71%
    11:00 +31°C° 0 mm 2 mps 717 mmHg 66%
    12:00 +32°C° 0 mm 2 mps 717 mmHg 60%
    13:00 +32°C° 0.2 mm 2 mps 716 mmHg 61%
    14:00 +32°C° 0.2 mm 2 mps 716 mmHg 61%
    15:00 +32°C° 0.2 mm 2 mps 715 mmHg 62%
    16:00 +31°C° 0.6 mm 2 mps 715 mmHg 69%
    17:00 +29°C° 0.6 mm 1 mps 715 mmHg 76%
    18:00 +27°C° 0.6 mm 1 mps 716 mmHg 83%
    19:00 +27°C° 0.7 mm 1 mps 716 mmHg 85%
    20:00 +26°C° 0.7 mm 2 mps 716 mmHg 87%
    21:00 +26°C° 0.7 mm 2 mps 717 mmHg 89%
    22:00 +25°C° 0.2 mm 2 mps 717 mmHg 90%
    23:00 +25°C° 0.2 mm 2 mps 716 mmHg 91%

    26 September, Wednesday

    Time Temperature Precipitation Wind Pressure Humidity
    00:00 +25°C° 0.2 mm 2 mps 716 mmHg 92%
    01:00 +25°C° 0.3 mm 2 mps 716 mmHg 92%
    02:00 +25°C° 0.3 mm 2 mps 716 mmHg 93%
    03:00 +24°C° 0.3 mm 2 mps 715 mmHg 93%
    04:00 +24°C° 0 mm 2 mps 715 mmHg 93%
    05:00 +24°C° 0 mm 2 mps 716 mmHg 93%
    06:00 +24°C° 0 mm 2 mps 716 mmHg 94%
    07:00 +25°C° 0 mm 2 mps 716 mmHg 88%
    08:00 +27°C° 0 mm 2 mps 717 mmHg 82%
    09:00 +28°C° 0 mm 2 mps 718 mmHg 76%
    10:00 +30°C° 0 mm 2 mps 717 mmHg 69%
    11:00 +32°C° 0 mm 2 mps 717 mmHg 62%
    12:00 +33°C° 0 mm 1 mps 717 mmHg 55%
    13:00 +33°C° 0.3 mm 1 mps 716 mmHg 56%
    14:00 +33°C° 0.3 mm 1 mps 716 mmHg 56%
    15:00 +33°C° 0.3 mm 1 mps 715 mmHg 57%
    16:00 +31°C° 0.7 mm 1 mps 715 mmHg 64%
    17:00 +29°C° 0.7 mm 1 mps 716 mmHg 72%
    18:00 +28°C° 0.7 mm 1 mps 716 mmHg 80%
    19:00 +27°C° 0.3 mm 1 mps 716 mmHg 82%
    20:00 +26°C° 0.3 mm 1 mps 717 mmHg 85%
    21:00 +26°C° 0.3 mm 1 mps 717 mmHg 87%
    22:00 +25°C° 0.9 mm 2 mps 717 mmHg 89%
    23:00 +25°C° 0.9 mm 2 mps 717 mmHg 91%
    Show more